Regional & State Weather Roundups


537 
ASUS46 KSGX 151311
RWRSGX
SAN DIEGO HOURLY WEATHER ROUNDUP
NATIONAL WEATHER SERVICE SAN DIEGO CA
500 AM PST FRI DEC 15 2017
NOTE: "FAIR" INDICATES FEW OR NO CLOUDS BELOW 12,000 FEET WITH NO 
SIGNIFICANT WEATHER AND/OR OBSTRUCTIONS TO VISIBILITY.
CAZ042-043-060-061-PZZ750-775-151400-
GREATER SAN DIEGO AREA
  
CITY           SKY/WX    TMP DP  RH WIND       PRES   REMARKS
SAN DIEGO AP   CLEAR     51  36  56 CALM      30.10S                  
NATIONAL CITY    N/A     47  29  50 CALM      30.10F                  
CHULA VISTA      N/A     46  28  49 E2        30.00S                  
IMPERIAL BEACH CLEAR     49  23  36 NE5       30.09S                  
BROWN FIELD    CLEAR     54  17  23 NE5       30.08F                  
MIRAMAR MCAS   CLEAR     69   7   9 NE10      30.08S                  
MONTGOMERY FLD CLEAR     65  10  11 NE3       30.09S                  
GILLESPIE FLD  FAIR      43  27  52 CALM      30.09F                  
$$
NORTH SAN DIEGO COUNTY
  
CITY           SKY/WX    TMP DP  RH WIND       PRES   REMARKS
CAMP PENDLETON CLEAR     36  19  50 CALM      30.09S                  
OCEANSIDE AP   NOT AVBL                                               
OCEANSIDE HBR    N/A     56  20  25 CALM      30.10F                  
VISTA            N/A     52  17  24 CALM      30.07F                  
CARLSBAD       CLEAR     55  16  21 CALM      30.08S                  
DEL MAR          N/A     57  19  23 CALM      30.09F                  
LA JOLLA SCRIP   N/A     61  36  39 E3        30.08S                  
FALLBROOK        N/A     60  13  16 CALM      30.11S                  
ESCONDIDO        N/A     46  25  44 CALM      30.11S                  
SAN MARCOS       N/A     62  13  14 CALM      30.11S                  
POWAY            N/A     56  18  22 CALM      30.12F                  
$$
EAST SAN DIEGO COUNTY
  
CITY           SKY/WX    TMP DP  RH WIND       PRES   REMARKS
RAMONA         CLEAR     41  13  31 E5        30.11F                  
LA MESA          N/A     62  16  16 CALM      30.02F                  
JAMUL            N/A     49  16  27 CALM      30.10S                  
MT. LAGUNA OBS   N/A     44   8  22 E35       30.08S                  
$$
ORANGE COUNTY AND THE LOS ANGELES BASIN
  
CITY           SKY/WX    TMP DP  RH WIND       PRES   REMARKS
JOHN WAYNE AP  CLEAR     50  41  71 NE6       30.09R                  
LAGUNA BEACH     N/A     46  22  38 CALM      30.05R                  
LAKE FOREST FR   N/A     60   6  11 E6        29.96R                  
HUNTINGTON BCH   N/A     45  36  70 CALM      30.10S                  
LOS ALAMITOS   FAIR      44  31  61 CALM      30.08S                  
FULLERTON      CLEAR     46  32  58 CALM      30.09R                  
LONG BEACH     CLEAR     53  27  36 CALM      30.09S                  
L.A. AP        CLEAR     53  30  41 E5        30.11S                  
L.A. DOWNTOWN  CLEAR     55  22  27 CALM      30.10S                  
$$
THE INLAND EMPIRE
  
CITY           SKY/WX    TMP DP  RH WIND       PRES   REMARKS
CORONA         CLEAR     56  15  20 E10       30.13                   
CHINO          CLEAR     49  21  33 CALM      30.14R                  
ONTARIO        PTCLDY    51  13  21 VRB7      30.12S                  
SAN BERNARDINO FAIR      51   8  18 SE3       30.15R                  
RIVERSIDE AP   CLEAR     51  16  24 E7        30.14R                  
MORENO VALLEY    N/A     56  20  24 CALM      28.27S                  
MARCH ARB      CLEAR     43  10  25 W5        30.14S                  
HORSETHIEF CYN   N/A     58   0   9 NW6       30.13S                  
PERRIS           N/A     66  16  14 SE7       30.10S                  
HEMET EAST       N/A     58  -1   9 CALM      30.17S                  
FRENCH VALLEY  FAIR      45  12  26 N6        30.14S                  
TEMECULA         N/A     46  24  42 CALM      30.20S                  
$$
SAN BERNARDINO AND RIVERSIDE COUNTY MOUNTAINS
  
CITY           SKY/WX    TMP DP  RH WIND       PRES   REMARKS
BIG BEAR AP    PTCLDY    21  -8  27 CALM      30.35S                  
ANGELUS OAKS     N/A     53   0  11 CALM      30.10R                  
$$
SOUTHERN DESERT INCLUDING THE COACHELLA VALLEY
  
CITY           SKY/WX    TMP DP  RH WIND       PRES   REMARKS
PALM SPRINGS   CLEAR     60  12  15 NW5       30.17S                  
THOUSAND PALMS   N/A     56  15  20 NW3       30.12F                  
PALM DESERT      N/A    N/A N/A N/A CALM        N/A                   
THERMAL        CLEAR     50  20  30 SW7       30.13R                  
BLYTHE         CLEAR     51  20  29 E10       30.18R                  
IMPERIAL AP    CLEAR     47  24  40 S3        30.14S                  
EL CENTRO NAS  CLEAR     46  16  30 SW12      30.16S                  
YUMA AZ        CLEAR     53  20  27 N5        30.14S                  
$$
UPPER DESERT
  
CITY           SKY/WX    TMP DP  RH WIND       PRES   REMARKS
HESPERIA         N/A     36  13  39 CALM      30.41S                  
APPLE VALLEY     N/A     23  15  70 CALM      30.36R                  
PALMDALE       PTCLDY    31  12  45 SW6       30.27F WCI  25          
LANCASTER      PTCLDY    24   4  42 NW5       30.27F WCI  18          
EDWARDS AFB    CLEAR     28   2  32 W7        30.25F WCI  20          
DAGGETT        CLEAR     34  12  40 SE5       30.27R WCI  30          
29 PALMS N     CLEAR     44  11  26 CALM      30.31R                  
NEEDLES        CLEAR     57  19  22 N7        30.23R                  
$$
REGIONAL REPORTS
  
CITY           SKY/WX    TMP DP  RH WIND       PRES   REMARKS
SANTA BARBARA  CLEAR     36  27  69 CALM      30.10S                  
LAS VEGAS NV   CLEAR     43  17  35 SW7       30.27F                  
PHOENIX AZ     CLEAR     54  16  22 E9        30.15S                  
TIJUANA        CLEAR     50  18  27 CALM      30.11S                  
ENSENADA NW      N/A     68  32  26 E15       30.00S                  
$$
OFFSHORE ISLANDS
  
CITY           SKY/WX    TMP DP  RH WIND       PRES   REMARKS
CATALINA ARPT  CLEAR     69   1   7 NE5       30.14S                  
SAN NICOLAS IS CLEAR     67  11  11 CALM      30.09F                  
$$
MARINE AND OFFSHORE BUOY REPORTS
  
STATION/POSITION SKY/WX   TEMP    WIND        PRES    VSBY  SWELL
                          AIR SEA DIR/SP/G                  HT/PER/DIR
                          (F)     (DEG/KT/KT) (MB)    (MI)  (FT/S/D)
TANNER BANKS               61 62              1018.4
S CLEMENTE BASIN           63 64  350/  6/  8 1018.6          5/300/17
SAN NICOLAS IS.               61                N/A           7/300/17
SO. S. ROSA ISLA           60 60  330/  4/  6 1018.7S         8/280/17
W. S. BARBARA CH           59 59  320/  4/  6 1018.7F         8/290/17
M. S. BARBARA CH           58 60   50/  4/  6 1019.9F         3/230/17
S. MONICA BASIN               61   80/  2/  2 1018.4F         3/280/14
S PEDRO CHANNEL               62                N/A           2/270/13
CMP PENDLETON NS              62                N/A           2/240/13
OCEANSIDE OFFSHR              63                N/A           2/260/15
TORREY PINES OTR              62                N/A           2/270/13
SAN DIEGO BAY                 64              1019.1F
POINT LOMA SOUTH              64                N/A           3/290/15
$$